Longville, MN

9:24 PM CST on December 09, 2016 (GMT -0600)
Longville Municipal

Weather History for KXVG - October, 2013

Change the Weather History Date:

Sunday, October 6, 2013

  Actual Average (KPWC) Record (KPWC)
Temperature  
Mean Temperature 46 °F -  
Max Temperature 53 °F 58 °F 78 °F (2004)
Min Temperature 39 °F 36 °F 19 °F (2012)
Degree Days  
Heating Degree Days 19    
Moisture  
Dew Point 43 °F    
Average Humidity 91    
Maximum Humidity 100    
Minimum Humidity 67    
Precipitation  
Precipitation 0.05 in - - ()
Sea Level Pressure  
Sea Level Pressure 29.78 in    
Wind  
Wind Speed 5 mph (North)    
Max Wind Speed 14 mph    
Max Gust Speed 20 mph    
Visibility 9 miles    
Events Rain    
Averages and records for this station are not official NWS values.
T = Trace of Precipitation, MM = Missing Value Source: NWS Daily Summary

Daily Weather History Graph

Daily Weather History Graph

Search for Another Location

Airport or City:

Trip Planner

Search our weather history database for the weather conditions in past years. The results will help you decide how hot, cold, wet, or windy it might be!

Date:

Astronomy

Oct. 06, 2013 Rise Set
Actual Time 7:22 AM CDT 6:46 PM CDT
Civil Twilight 6:52 AM CDT 7:16 PM CDT
Nautical Twilight 6:17 AM CDT 7:51 PM CDT
Astronomical Twilight 5:41 AM CDT 8:27 PM CDT
Moon 9:16 AM CDT (10/6) 7:36 PM CDT (10/6)
Length of Visible Light 12h 24m
Length of Day
11h 23m
Waxing Crescent, 3% of the Moon is Illuminated
Oct 6
Waxing Crescent
Oct 11
First Quarter
Oct 18
Full
Oct 26
Last Quarter
Nov 3
New

Hourly Weather History & Observations

Time (CDT) Temp. Windchill Dew Point Humidity Pressure Visibility Wind Dir Wind Speed Gust Speed Precip Events Conditions
12:16 AM 46.4 °F 43.5 °F 46.4 °F 100% 29.76 in 10.0 mi NE 5.8 mph - N/A   Overcast
12:36 AM 46.4 °F 41.9 °F 46.4 °F 100% 29.74 in 10.0 mi NNE 9.2 mph - N/A   Overcast
12:56 AM 46.4 °F 45.2 °F 44.6 °F 93% 29.76 in 10.0 mi NE 3.5 mph - N/A   Light Drizzle
1:16 AM 46.4 °F 45.2 °F 44.6 °F 93% 29.76 in 10.0 mi ENE 3.5 mph - N/A   Overcast
1:36 AM 46.4 °F - 44.6 °F 93% 29.76 in 10.0 mi Calm Calm - N/A   Overcast
1:56 AM 46.4 °F - 44.6 °F 93% 29.76 in 10.0 mi Calm Calm - N/A   Overcast
2:16 AM 46.4 °F 45.2 °F 44.6 °F 93% 29.76 in 10.0 mi North 3.5 mph - N/A   Overcast
2:36 AM 46.4 °F - 44.6 °F 93% 29.75 in 10.0 mi Calm Calm - N/A   Overcast
2:56 AM 46.4 °F - 44.6 °F 93% 29.75 in 10.0 mi Calm Calm - N/A   Overcast
3:16 AM 46.4 °F 45.2 °F 44.6 °F 93% 29.75 in 10.0 mi NW 3.5 mph - N/A   Overcast
3:36 AM 46.4 °F 43.5 °F 44.6 °F 93% 29.76 in 7.0 mi NNW 5.8 mph - N/A   Overcast
3:56 AM 44.6 °F 43.1 °F 44.6 °F 100% 29.76 in 3.0 mi NNW 3.5 mph - N/A   Heavy Drizzle
4:16 AM 44.6 °F 43.1 °F 44.6 °F 100% 29.76 in 3.0 mi North 3.5 mph - N/A   Light Drizzle
4:36 AM 44.6 °F 42.2 °F 44.6 °F 100% 29.75 in 4.0 mi North 4.6 mph - N/A   Light Drizzle
4:56 AM 44.6 °F 43.1 °F 44.6 °F 100% 29.75 in 10.0 mi North 3.5 mph - N/A   Overcast
5:16 AM 44.6 °F 41.4 °F 44.6 °F 100% 29.74 in 10.0 mi NNE 5.8 mph - N/A   Overcast
5:36 AM 44.6 °F 42.2 °F 44.6 °F 100% 29.74 in 10.0 mi NNE 4.6 mph - N/A   Overcast
5:56 AM 44.6 °F 41.4 °F 44.6 °F 100% 29.74 in 10.0 mi North 5.8 mph - N/A   Overcast
6:16 AM 44.6 °F 42.2 °F 44.6 °F 100% 29.74 in 10.0 mi NE 4.6 mph - N/A   Overcast
6:36 AM 44.6 °F 42.2 °F 44.6 °F 100% 29.75 in 10.0 mi NNE 4.6 mph - N/A   Overcast
6:56 AM 44.6 °F 40.2 °F 44.6 °F 100% 29.76 in 10.0 mi North 8.1 mph - N/A   Overcast
7:16 AM 44.6 °F 41.4 °F 42.8 °F 93% 29.76 in 7.0 mi NNE 5.8 mph - N/A   Light Drizzle
7:36 AM 44.6 °F 42.2 °F 42.8 °F 93% 29.76 in 5.0 mi NNE 4.6 mph - 0.01 in Rain Heavy Rain
7:56 AM 44.6 °F 42.2 °F 44.6 °F 100% 29.76 in 4.0 mi North 4.6 mph - N/A Rain Heavy Rain
8:16 AM 44.6 °F 42.2 °F 44.6 °F 100% 29.76 in 2.0 mi NNE 4.6 mph - N/A   Drizzle
8:36 AM 44.6 °F 40.7 °F 44.6 °F 100% 29.76 in 7.0 mi NNE 6.9 mph - 0.01 in   Overcast
8:56 AM 44.6 °F 40.2 °F 44.6 °F 100% 29.77 in 7.0 mi North 8.1 mph - N/A   Drizzle
9:16 AM 44.6 °F 41.4 °F 42.8 °F 93% 29.77 in 4.0 mi North 5.8 mph - N/A Rain Rain
9:36 AM 44.6 °F 41.4 °F 42.8 °F 93% 29.77 in 7.0 mi North 5.8 mph - 0.01 in Rain Rain
9:56 AM 44.6 °F 40.7 °F 42.8 °F 93% 29.77 in 5.0 mi North 6.9 mph - N/A Rain Heavy Rain
10:16 AM 44.6 °F 43.1 °F 42.8 °F 93% 29.77 in 5.0 mi North 3.5 mph - 0.01 in Rain Light Rain
10:36 AM 44.6 °F 40.7 °F 42.8 °F 93% 29.78 in 5.0 mi North 6.9 mph - 0.02 in   Drizzle
10:56 AM 44.6 °F 39.2 °F 42.8 °F 93% 29.78 in 5.0 mi North 10.4 mph 18.4 mph N/A   Overcast
11:16 AM 44.6 °F 39.2 °F 42.8 °F 93% 29.78 in 7.0 mi North 10.4 mph 19.6 mph N/A   Overcast
11:36 AM 44.6 °F 40.2 °F 42.8 °F 93% 29.78 in 10.0 mi North 8.1 mph 16.1 mph N/A   Overcast
11:56 AM 44.6 °F 40.7 °F 42.8 °F 93% 29.79 in 10.0 mi North 6.9 mph - N/A   Overcast
12:16 PM 44.6 °F 43.1 °F 42.8 °F 93% 29.79 in 10.0 mi NNW 3.5 mph - N/A   Overcast
12:36 PM 44.6 °F 40.2 °F 44.6 °F 100% 29.79 in 10.0 mi North 8.1 mph - N/A   Overcast
12:56 PM 46.4 °F 41.9 °F 44.6 °F 93% 29.79 in 10.0 mi NNW 9.2 mph - N/A   Overcast
1:16 PM 46.4 °F 44.3 °F 44.6 °F 93% 29.79 in 10.0 mi NNW 4.6 mph - N/A   Overcast
1:36 PM 48.2 °F - 44.6 °F 87% 29.78 in 10.0 mi NNW 6.9 mph - N/A   Overcast
1:56 PM 50.0 °F - 44.6 °F 82% 29.78 in 10.0 mi NNW 10.4 mph 16.1 mph N/A   Overcast
2:16 PM 51.8 °F - 46.4 °F 82% 29.78 in 10.0 mi North 13.8 mph 19.6 mph N/A   Overcast
2:36 PM 51.8 °F - 46.4 °F 82% 29.77 in 10.0 mi North 4.6 mph - N/A   Overcast
2:56 PM 53.6 °F - 46.4 °F 77% 29.78 in 10.0 mi NNW 8.1 mph 17.3 mph N/A   Overcast
3:16 PM 51.8 °F - 46.4 °F 82% 29.78 in 10.0 mi NW 9.2 mph 16.1 mph N/A   Mostly Cloudy
3:36 PM 51.8 °F - 44.6 °F 76% 29.77 in 10.0 mi NNW 6.9 mph - N/A   Scattered Clouds
3:56 PM 53.6 °F - 44.6 °F 72% 29.78 in 10.0 mi NW 9.2 mph - N/A   Clear
4:16 PM 53.6 °F - 42.8 °F 67% 29.78 in 10.0 mi North 8.1 mph - N/A   Clear
4:36 PM 53.6 °F - 44.6 °F 72% 29.78 in 10.0 mi NW 6.9 mph - N/A   Clear
4:56 PM 53.6 °F - 42.8 °F 67% 29.78 in 10.0 mi NNW 4.6 mph - N/A   Clear
5:16 PM 53.6 °F - 42.8 °F 67% 29.79 in 10.0 mi NNW 6.9 mph - N/A   Clear
5:36 PM 53.6 °F - 42.8 °F 67% 29.79 in 10.0 mi Calm Calm - N/A   Clear
5:56 PM 53.6 °F - 42.8 °F 67% 29.80 in 10.0 mi NW 4.6 mph - N/A   Clear
6:16 PM 51.8 °F - 42.8 °F 71% 29.80 in 10.0 mi West 3.5 mph - N/A   Clear
6:36 PM 48.2 °F - 44.6 °F 87% 29.80 in 10.0 mi Calm Calm - N/A   Clear
6:56 PM 44.6 °F - 42.8 °F 93% 29.80 in 10.0 mi Calm Calm - N/A   Clear
7:16 PM 44.6 °F - 42.8 °F 93% 29.80 in 10.0 mi Calm Calm - N/A   Clear
7:36 PM 42.8 °F - 41.0 °F 93% 29.81 in 10.0 mi Calm Calm - N/A   Clear
7:56 PM 41.0 °F 39.0 °F 41.0 °F 100% 29.81 in 10.0 mi West 3.5 mph - N/A   Clear
8:16 PM 42.8 °F - 42.8 °F 100% 29.81 in 10.0 mi Calm Calm - N/A   Clear
8:36 PM 42.8 °F 41.1 °F 41.0 °F 93% 29.80 in 10.0 mi West 3.5 mph - N/A   Clear
8:56 PM 42.8 °F 40.1 °F 41.0 °F 93% 29.80 in 10.0 mi West 4.6 mph - N/A   Clear
9:16 PM 42.8 °F 40.1 °F 42.8 °F 100% 29.80 in 10.0 mi West 4.6 mph - N/A   Scattered Clouds
9:36 PM 42.8 °F 41.1 °F 42.8 °F 100% 29.80 in 10.0 mi West 3.5 mph - N/A   Scattered Clouds
9:56 PM 42.8 °F 41.1 °F 41.0 °F 93% 29.81 in 10.0 mi West 3.5 mph - N/A   Mostly Cloudy
10:16 PM 42.8 °F - 42.8 °F 100% 29.80 in 10.0 mi Calm Calm - N/A   Overcast
10:36 PM 41.0 °F - 39.2 °F 93% 29.80 in 10.0 mi Calm Calm - N/A   Scattered Clouds
10:56 PM 39.2 °F - 39.2 °F 100% 29.80 in 10.0 mi Calm Calm - N/A   Scattered Clouds
11:16 PM 39.2 °F - 39.2 °F 100% 29.80 in 10.0 mi Calm Calm - N/A   Scattered Clouds
11:36 PM 39.2 °F - 37.4 °F 93% 29.80 in 10.0 mi Calm Calm - N/A   Clear
11:56 PM 39.2 °F - 37.4 °F 93% 29.80 in 10.0 mi Calm Calm - N/A   Clear